Bainbridge, GA

8:08 PM EST on December 07, 2016 (GMT -0500)
Decatur County Industrial

Weather History for KBGE - January, 2013

Change the Weather History Date:

Thursday, January 17, 2013

  Actual Average (KMAI) Record (KMAI)
Temperature  
Mean Temperature 52 °F 50 °F  
Max Temperature 64 °F 61 °F 77 °F (1999)
Min Temperature 41 °F 39 °F 23 °F (2009)
Degree Days  
Heating Degree Days 12    
Month to date heating degree days  
Since 1 July heating degree days  
Cooling Degree Days 0    
Month to date cooling degree days  
Year to date cooling degree days  
Growing Degree Days 2 (Base 50)    
Moisture  
Dew Point 46 °F    
Average Humidity 81    
Maximum Humidity 100    
Minimum Humidity 58    
Precipitation  
Precipitation 0.00 in 0.14 in 0.76 in (2012)
Month to date precipitation 2.57  
Year to date precipitation 2.57  
Sea Level Pressure  
Sea Level Pressure 30.03 in    
Wind  
Wind Speed 10 mph (West)    
Max Wind Speed 26 mph    
Max Gust Speed 33 mph    
Visibility 8 miles    
Events Rain    
T = Trace of Precipitation, MM = Missing Value Source: NWS Daily Summary

Daily Weather History Graph

Daily Weather History Graph

Search for Another Location

Airport or City:

Trip Planner

Search our weather history database for the weather conditions in past years. The results will help you decide how hot, cold, wet, or windy it might be!

Date:

Astronomy

Jan. 17, 2013 Rise Set
Actual Time 7:36 AM EST 6:01 PM EST
Civil Twilight 7:10 AM EST 6:27 PM EST
Nautical Twilight 6:41 AM EST 6:56 PM EST
Astronomical Twilight 6:12 AM EST 7:25 PM EST
Moon 11:12 AM EST (1/17) No Moon Set
Length of Visible Light 11h 16m
Length of Day
10h 24m
Waxing Crescent, 37% of the Moon is Illuminated
Jan 17
Waxing Crescent
Jan 18
First Quarter
Jan 26
Full
Feb 3
Last Quarter
Feb 10
New

Hourly Weather History & Observations

Time (EST) Temp. Windchill Dew Point Humidity Pressure Visibility Wind Dir Wind Speed Gust Speed Precip Events Conditions
12:15 AM 64.4 °F - 64.4 °F 100% 29.97 in 7.0 mi Calm Calm - N/A   Mostly Cloudy
12:35 AM 64.4 °F - 64.4 °F 100% 29.97 in 7.0 mi Calm Calm - N/A   Overcast
12:55 AM 64.4 °F - 64.4 °F 100% 29.95 in 5.0 mi Calm Calm - N/A Rain Rain
1:15 AM 64.4 °F - 64.4 °F 100% 29.96 in 5.0 mi Calm Calm - N/A   Overcast
1:35 AM 64.4 °F - 64.4 °F 100% 29.96 in 7.0 mi Calm Calm - N/A   Overcast
1:55 AM 64.4 °F - 64.4 °F 100% 29.95 in 5.0 mi SE 3.5 mph - N/A   Overcast
2:15 AM 64.4 °F - 64.4 °F 100% 29.95 in 4.0 mi SE 3.5 mph - N/A   Overcast
2:35 AM 64.4 °F - 64.4 °F 100% 29.94 in 5.0 mi Calm Calm - N/A   Overcast
2:55 AM 64.4 °F - 64.4 °F 100% 29.94 in 5.0 mi South 4.6 mph - N/A   Overcast
3:15 AM 64.4 °F - 64.4 °F 100% 29.94 in 5.0 mi Calm Calm - N/A   Overcast
3:55 AM 64.4 °F - 64.4 °F 100% 29.93 in 10.0 mi SSW 4.6 mph - N/A   Overcast
4:15 AM 64.4 °F - 64.4 °F 100% 29.92 in 5.0 mi SSW 4.6 mph - N/A Rain Rain
4:35 AM 64.4 °F - 64.4 °F 100% 29.92 in 10.0 mi SSW 5.8 mph - N/A   Overcast
4:55 AM 64.4 °F - 62.6 °F 94% 29.91 in 10.0 mi SSW 5.8 mph - N/A   Overcast
5:15 AM 64.4 °F - 64.4 °F 100% 29.90 in 7.0 mi SW 3.5 mph - N/A Rain Light Rain
5:35 AM 64.4 °F - 64.4 °F 100% 29.91 in 7.0 mi SW 11.5 mph 16.1 mph N/A Rain Rain
5:55 AM 62.6 °F - 60.8 °F 94% 29.93 in 5.0 mi WSW 19.6 mph 26.5 mph N/A Rain Rain
6:15 AM 59.0 °F - 59.0 °F 100% 29.95 in 2.5 mi WSW 16.1 mph 20.7 mph N/A   Drizzle
6:35 AM 59.0 °F - 57.2 °F 94% 29.95 in 5.0 mi WSW 13.8 mph 20.7 mph N/A   Overcast
6:55 AM 57.2 °F - 55.4 °F 94% 29.96 in 4.0 mi West 16.1 mph 19.6 mph N/A   Overcast
7:15 AM 53.6 °F - 53.6 °F 100% 29.97 in 10.0 mi WSW 15.0 mph 20.7 mph N/A   Light Drizzle
7:35 AM 53.6 °F - 51.8 °F 94% 29.98 in 10.0 mi WSW 17.3 mph 21.9 mph N/A   Overcast
7:55 AM 53.6 °F - 51.8 °F 94% 29.98 in 7.0 mi WSW 13.8 mph - N/A   Mostly Cloudy
8:15 AM 53.6 °F - 50.0 °F 88% 29.99 in 10.0 mi WSW 13.8 mph 21.9 mph N/A   Mostly Cloudy
8:35 AM 51.8 °F - 50.0 °F 94% 29.99 in 10.0 mi WSW 17.3 mph 26.5 mph N/A   Mostly Cloudy
8:55 AM 51.8 °F - 50.0 °F 94% 30.00 in 5.0 mi WSW 17.3 mph 27.6 mph N/A   Overcast
9:15 AM 50.0 °F - 46.4 °F 87% 30.02 in 4.0 mi West 19.6 mph 31.1 mph N/A   Light Drizzle
9:35 AM 50.0 °F - 46.4 °F 87% 30.03 in 7.0 mi West 15.0 mph 23.0 mph N/A   Mostly Cloudy
10:15 AM 50.0 °F - 46.4 °F 87% 30.03 in 10.0 mi WSW 15.0 mph 21.9 mph N/A   Mostly Cloudy
10:55 AM 51.8 °F - 44.6 °F 76% 30.03 in 10.0 mi WSW 18.4 mph 23.0 mph N/A   Scattered Clouds
11:15 AM 51.8 °F - 44.6 °F 76% 30.02 in 10.0 mi WSW 20.7 mph 28.8 mph N/A   Mostly Cloudy
11:35 AM 51.8 °F - 42.8 °F 71% 30.02 in 10.0 mi WSW 26.5 mph 33.4 mph N/A   Scattered Clouds
11:55 AM 51.8 °F - 41.0 °F 67% 30.02 in 10.0 mi West 24.2 mph 31.1 mph N/A   Mostly Cloudy
12:15 PM 51.8 °F - 41.0 °F 67% 30.02 in 10.0 mi West 20.7 mph 32.2 mph N/A   Mostly Cloudy
12:35 PM 51.8 °F - 39.2 °F 62% 30.02 in 10.0 mi WSW 25.3 mph 31.1 mph N/A   Mostly Cloudy
12:55 PM 50.0 °F - 41.0 °F 71% 30.02 in 10.0 mi West 21.9 mph 27.6 mph N/A   Mostly Cloudy
1:15 PM 50.0 °F - 37.4 °F 62% 30.01 in 10.0 mi WSW 15.0 mph 26.5 mph N/A   Mostly Cloudy
1:35 PM 50.0 °F - 37.4 °F 62% 30.02 in 10.0 mi West 23.0 mph 27.6 mph N/A   Overcast
1:55 PM 50.0 °F - 37.4 °F 62% 30.01 in 10.0 mi WSW 17.3 mph 31.1 mph N/A   Overcast
2:15 PM 50.0 °F - 37.4 °F 62% 30.01 in 10.0 mi West 19.6 mph 26.5 mph N/A   Overcast
2:35 PM 50.0 °F - 37.4 °F 62% 30.01 in 10.0 mi West 17.3 mph 27.6 mph N/A   Overcast
2:55 PM 50.0 °F - 35.6 °F 58% 30.01 in 10.0 mi West 24.2 mph 28.8 mph N/A   Overcast
3:15 PM 46.4 °F 38.7 °F 35.6 °F 66% 30.02 in 10.0 mi West 20.7 mph 27.6 mph N/A   Overcast
3:35 PM 44.6 °F 36.1 °F 33.8 °F 66% 30.04 in 10.0 mi West 21.9 mph 33.4 mph N/A   Overcast
3:55 PM 44.6 °F 37.2 °F 33.8 °F 66% 30.05 in 10.0 mi West 17.3 mph 27.6 mph N/A   Overcast
4:15 PM 44.6 °F 37.4 °F 32.0 °F 61% 30.06 in 10.0 mi West 16.1 mph 25.3 mph N/A   Overcast
4:35 PM 42.8 °F 33.5 °F 32.0 °F 66% 30.08 in 10.0 mi West 23.0 mph 27.6 mph N/A   Overcast
4:55 PM 42.8 °F 34.3 °F 32.0 °F 66% 30.07 in 10.0 mi West 19.6 mph 27.6 mph N/A   Overcast
5:15 PM 42.8 °F 34.5 °F 33.8 °F 70% 30.09 in 10.0 mi West 18.4 mph 26.5 mph N/A   Overcast
5:35 PM 42.8 °F 34.0 °F 33.8 °F 70% 30.10 in 10.0 mi West 20.7 mph 27.6 mph N/A   Overcast
5:55 PM 41.0 °F 32.2 °F 32.0 °F 70% 30.11 in 10.0 mi WNW 18.4 mph 26.5 mph N/A   Mostly Cloudy
6:15 PM 41.0 °F 31.9 °F 32.0 °F 70% 30.13 in 10.0 mi WNW 19.6 mph 23.0 mph N/A   Overcast
6:35 PM 41.0 °F 33.1 °F 33.8 °F 76% 30.14 in 10.0 mi WNW 15.0 mph - N/A   Overcast
6:55 PM 41.0 °F 34.3 °F 33.8 °F 76% 30.15 in 10.0 mi WNW 11.5 mph 20.7 mph N/A   Overcast
7:15 PM 42.8 °F 35.1 °F 33.8 °F 70% 30.16 in 10.0 mi WNW 16.1 mph 21.9 mph N/A   Overcast
7:55 PM 42.8 °F 34.8 °F 33.8 °F 70% 30.18 in 10.0 mi WNW 17.3 mph 26.5 mph N/A   Overcast
8:15 PM 42.8 °F 34.8 °F 33.8 °F 70% 30.18 in 10.0 mi NW 17.3 mph 28.8 mph N/A   Overcast
8:35 PM 42.8 °F 35.1 °F 33.8 °F 70% 30.19 in 10.0 mi NW 16.1 mph 24.2 mph N/A   Overcast
8:55 PM 42.8 °F 34.8 °F 33.8 °F 70% 30.20 in 10.0 mi NW 17.3 mph 23.0 mph N/A   Overcast
9:15 PM 42.8 °F 35.1 °F 33.8 °F 70% 30.20 in 10.0 mi NW 16.1 mph 21.9 mph N/A   Mostly Cloudy
9:35 PM 42.8 °F 36.6 °F 33.8 °F 70% 30.21 in 10.0 mi NW 11.5 mph 24.2 mph N/A   Mostly Cloudy
9:55 PM 42.8 °F 36.2 °F 33.8 °F 70% 30.21 in 10.0 mi NNW 12.7 mph 18.4 mph N/A   Overcast
10:15 PM 42.8 °F 35.8 °F 35.6 °F 76% 30.21 in 10.0 mi NNW 13.8 mph 21.9 mph N/A   Overcast
10:35 PM 44.6 °F 38.4 °F 35.6 °F 71% 30.21 in 10.0 mi NNW 12.7 mph 20.7 mph N/A   Mostly Cloudy
10:55 PM 44.6 °F 39.2 °F 35.6 °F 71% 30.22 in 10.0 mi NNW 10.4 mph 21.9 mph N/A   Mostly Cloudy